Dublin Airport

Airport
ICAO code: 
EIDW
IATA Code: 
DUB
Summary
ICAO Region: 
EUR
Territory: 
Location: 
Collinstown, Fingal,
Serving: 
Dublin
Elevation: 
242 ft
Coordinates: 
Aerial View: 
53° 25' 40.911" N, 6° 15' 19.638" W
Metar
Observation
EIDW 190030Z 23008KT 170V270 9999 FEW008 BKN010 BKN020 09/08 Q1027 TEMPO BKN008
Station
Dublin Airport
Date/Time
2022-01-19 00:30:00
Wind direction
230°
Wind speed
08 kts
Lowest cloud amount
few clouds
Temperature
9°C
Dew point
8°C
Humidity
93%
QNH
1027 hPa
Weather condition
n/a

Description

International airport serving the city of Dublin.

Climatology

Temperate Marine climate/Oceanic climate (Köppen climate classification Cfb). Moderately cool summer and comparatively warm winter with a temperature range of only 14°C. Prevailing south-westerly winds from the Atlantic Ocean.

Runways

Designator Length Width Surface Rops
11/29 1339 61 ASP Yes/Yes
16/34 2072 61 ASP Yes/Yes
10/28 2637 45 CON Yes/Yes

SKYbrary Partners:

Safety knowledge contributed by: